Tracking 35275 objects as of 8-Sep-2026
HD Live streaming from Space Station
objects crossing your sky now

STS 70


STS 70 is no longer on orbit


NORAD ID: 23612
Int'l Code: 1995-035A
Launch date: July 13, 1995
Source: United States (US)
Launch site: AIR FORCE EASTERN TEST RANGE (AFETR)
Decay date: 1995-07-22
Your satellite tracking list
Your tracking list is empty




NASA's NSSDC Master Catalog

Two Line Element Set (TLE):
1 23612U 95035  A 95203.30277778  .00002218 -70109-5 +00000-0 0  9992
2 23612 028.4626 261.7787 0021123 241.6630 237.4205 15.90792464001396
Source of the keplerian elements: AFSPC